contact:dominique.lefevre@mio.osupytheas.fr, maurice.libes@osupytheas.fr, didier.mallarino@osupytheas.fr
Project:EMSO http://www.emso-fr.org/EMSO-France
Depth: 2436.0 m
Title:EMSO Ligure Ouest : Data MII capteur OXYGEN
DateTime,Latitude,Longitude,Optode-Type,Optode_Serial,Oxygen,Saturation_Oxygen,Temperature
DateTime,Latitude,Longitude,Optode-Type,Optode_Serial,µmol.l-1,%,degC
2017-10-21T00:01:44,42.805,6.029,4330,1995,197.001,60.244,13.287
2017-10-21T00:04:44,42.805,6.029,4330,1995,196.894,60.212,13.287
2017-10-21T00:07:44,42.805,6.029,4330,1995,196.631,60.134,13.289
2017-10-21T00:10:44,42.805,6.029,4330,1995,196.687,60.149,13.287
2017-10-21T00:13:44,42.805,6.029,4330,1995,196.880,60.207,13.287
2017-10-21T00:16:44,42.805,6.029,4330,1995,197.574,60.420,13.287
2017-10-21T00:19:44,42.805,6.029,4330,1995,197.677,60.452,13.287
2017-10-21T00:22:44,42.805,6.029,4330,1995,197.643,60.440,13.286
2017-10-21T00:25:44,42.805,6.029,4330,1995,197.708,60.460,13.287
2017-10-21T00:28:44,42.805,6.029,4330,1995,197.749,60.473,13.287
2017-10-21T00:31:44,42.805,6.029,4330,1995,197.199,60.304,13.287
2017-10-21T00:34:44,42.805,6.029,4330,1995,197.176,60.298,13.287
2017-10-21T00:37:44,42.805,6.029,4330,1995,197.372,60.359,13.288
2017-10-21T00:40:44,42.805,6.029,4330,1995,197.538,60.408,13.287
2017-10-21T00:43:44,42.805,6.029,4330,1995,197.508,60.401,13.288
2017-10-21T00:46:44,42.805,6.029,4330,1995,197.009,60.248,13.288
2017-10-21T00:49:44,42.805,6.029,4330,1995,197.090,60.276,13.290
2017-10-21T00:52:43,42.805,6.029,4330,1995,196.840,60.196,13.288
2017-10-21T00:55:43,42.805,6.029,4330,1995,196.426,60.071,13.288
2017-10-21T00:58:43,42.805,6.029,4330,1995,196.203,60.003,13.289
2017-10-21T01:01:43,42.805,6.029,4330,1995,196.170,59.992,13.289
2017-10-21T01:04:43,42.805,6.029,4330,1995,195.953,59.926,13.288
2017-10-21T01:07:43,42.805,6.029,4330,1995,196.100,59.969,13.287
2017-10-21T01:10:43,42.805,6.029,4330,1995,196.312,60.035,13.288
2017-10-21T01:13:43,42.805,6.029,4330,1995,196.467,60.082,13.288
2017-10-21T01:16:43,42.805,6.029,4330,1995,196.552,60.108,13.288
2017-10-21T01:19:43,42.805,6.029,4330,1995,196.485,60.087,13.288
2017-10-21T01:22:43,42.805,6.029,4330,1995,196.282,60.026,13.288
2017-10-21T01:25:43,42.805,6.029,4330,1995,196.159,59.988,13.288
2017-10-21T01:28:43,42.805,6.029,4330,1995,196.159,59.989,13.289
2017-10-21T01:31:43,42.805,6.029,4330,1995,196.098,59.970,13.288
2017-10-21T01:34:43,42.805,6.029,4330,1995,196.042,59.952,13.288
2017-10-21T01:37:43,42.805,6.029,4330,1995,195.505,59.789,13.289
2017-10-21T01:40:43,42.805,6.029,4330,1995,195.273,59.719,13.289
2017-10-21T01:43:43,42.805,6.029,4330,1995,195.339,59.737,13.288
2017-10-21T01:46:43,42.805,6.029,4330,1995,195.217,59.700,13.288
2017-10-21T01:49:43,42.805,6.029,4330,1995,195.044,59.648,13.288
2017-10-21T01:52:43,42.805,6.029,4330,1995,194.990,59.632,13.289
2017-10-21T01:55:43,42.805,6.029,4330,1995,195.045,59.649,13.289
2017-10-21T01:58:43,42.805,6.029,4330,1995,194.997,59.634,13.289
2017-10-21T02:01:43,42.805,6.029,4330,1995,195.268,59.716,13.288
2017-10-21T02:04:43,42.805,6.029,4330,1995,195.782,59.872,13.288
2017-10-21T02:07:43,42.805,6.029,4330,1995,195.872,59.900,13.288
2017-10-21T02:10:43,42.805,6.029,4330,1995,195.913,59.912,13.287
2017-10-21T02:13:43,42.805,6.029,4330,1995,195.958,59.927,13.288
2017-10-21T02:16:43,42.805,6.029,4330,1995,195.861,59.896,13.288
2017-10-21T02:19:43,42.805,6.029,4330,1995,195.960,59.926,13.287
2017-10-21T02:22:43,42.805,6.029,4330,1995,196.012,59.942,13.287
2017-10-21T02:25:43,42.805,6.029,4330,1995,196.034,59.949,13.287
2017-10-21T02:28:43,42.805,6.029,4330,1995,196.126,59.977,13.287
2017-10-21T02:31:43,42.805,6.029,4330,1995,196.198,59.998,13.287
2017-10-21T02:34:43,42.805,6.029,4330,1995,196.371,60.052,13.288
2017-10-21T02:37:43,42.805,6.029,4330,1995,196.200,60.000,13.288
2017-10-21T02:40:43,42.805,6.029,4330,1995,196.288,60.027,13.288
2017-10-21T02:43:43,42.805,6.029,4330,1995,196.036,59.951,13.288
2017-10-21T02:46:43,42.805,6.029,4330,1995,195.568,59.808,13.288
2017-10-21T02:49:43,42.805,6.029,4330,1995,195.406,59.758,13.288
2017-10-21T02:52:43,42.805,6.029,4330,1995,195.487,59.782,13.287
2017-10-21T02:55:43,42.805,6.029,4330,1995,195.299,59.725,13.288
2017-10-21T02:58:43,42.805,6.029,4330,1995,195.552,59.801,13.287
2017-10-21T03:01:43,42.805,6.029,4330,1995,195.789,59.875,13.288
2017-10-21T03:04:43,42.805,6.029,4330,1995,195.959,59.926,13.287
2017-10-21T03:07:43,42.805,6.029,4330,1995,196.009,59.942,13.288
2017-10-21T03:10:43,42.805,6.029,4330,1995,195.899,59.909,13.288
2017-10-21T03:13:43,42.805,6.029,4330,1995,196.242,60.014,13.288
2017-10-21T03:16:43,42.805,6.029,4330,1995,196.220,60.006,13.287
2017-10-21T03:19:43,42.805,6.029,4330,1995,196.506,60.093,13.287
2017-10-21T03:22:43,42.805,6.029,4330,1995,196.452,60.076,13.287
2017-10-21T03:25:43,42.805,6.029,4330,1995,196.930,60.223,13.287
2017-10-21T03:28:43,42.805,6.029,4330,1995,196.675,60.145,13.287
2017-10-21T03:31:43,42.805,6.029,4330,1995,196.356,60.048,13.288
2017-10-21T03:34:43,42.805,6.029,4330,1995,196.114,59.974,13.288
2017-10-21T03:37:43,42.805,6.029,4330,1995,195.997,59.938,13.288
2017-10-21T03:40:43,42.805,6.029,4330,1995,195.865,59.899,13.288
2017-10-21T03:43:43,42.805,6.029,4330,1995,195.741,59.859,13.287
2017-10-21T03:46:43,42.805,6.029,4330,1995,195.850,59.893,13.288
2017-10-21T03:49:43,42.805,6.029,4330,1995,195.775,59.870,13.287
2017-10-21T03:52:43,42.805,6.029,4330,1995,195.689,59.844,13.288
2017-10-21T03:55:43,42.805,6.029,4330,1995,195.525,59.794,13.288
2017-10-21T03:58:43,42.805,6.029,4330,1995,195.486,59.782,13.288
2017-10-21T04:01:43,42.805,6.029,4330,1995,195.769,59.867,13.287
2017-10-21T04:04:43,42.805,6.029,4330,1995,195.763,59.865,13.287
2017-10-21T04:07:43,42.805,6.029,4330,1995,196.272,60.022,13.288
2017-10-21T04:10:43,42.805,6.029,4330,1995,196.378,60.054,13.287
2017-10-21T04:13:43,42.805,6.029,4330,1995,196.259,60.018,13.287
2017-10-21T04:16:43,42.805,6.029,4330,1995,196.128,59.978,13.287
2017-10-21T04:19:43,42.805,6.029,4330,1995,195.955,59.924,13.287
2017-10-21T04:22:43,42.805,6.029,4330,1995,195.830,59.885,13.286
2017-10-21T04:25:43,42.805,6.029,4330,1995,196.135,59.979,13.287
2017-10-21T04:28:43,42.805,6.029,4330,1995,196.513,60.095,13.287
2017-10-21T04:31:43,42.805,6.029,4330,1995,196.416,60.064,13.286
2017-10-21T04:34:43,42.805,6.029,4330,1995,196.278,60.023,13.287
2017-10-21T04:37:43,42.805,6.029,4330,1995,196.236,60.010,13.287
2017-10-21T04:40:43,42.805,6.029,4330,1995,195.946,59.920,13.286
2017-10-21T04:43:43,42.805,6.029,4330,1995,196.233,60.009,13.287
2017-10-21T04:46:43,42.805,6.029,4330,1995,196.276,60.022,13.286
2017-10-21T04:49:43,42.805,6.029,4330,1995,196.208,60.002,13.287
2017-10-21T04:52:43,42.805,6.029,4330,1995,196.572,60.113,13.287
2017-10-21T04:55:43,42.805,6.029,4330,1995,196.454,60.077,13.287
2017-10-21T04:58:43,42.805,6.029,4330,1995,196.440,60.073,13.287
2017-10-21T05:01:43,42.805,6.029,4330,1995,196.153,59.985,13.287
2017-10-21T05:04:43,42.805,6.029,4330,1995,195.868,59.898,13.287
2017-10-21T05:07:43,42.805,6.029,4330,1995,195.720,59.852,13.287
2017-10-21T05:10:43,42.805,6.029,4330,1995,195.679,59.840,13.287
2017-10-21T05:13:43,42.805,6.029,4330,1995,195.593,59.813,13.286
2017-10-21T05:16:43,42.805,6.029,4330,1995,195.802,59.876,13.286
2017-10-21T05:19:43,42.805,6.029,4330,1995,196.163,59.987,13.287
2017-10-21T05:22:43,42.805,6.029,4330,1995,196.289,60.027,13.287
2017-10-21T05:25:43,42.805,6.029,4330,1995,196.171,59.990,13.287
2017-10-21T05:28:43,42.805,6.029,4330,1995,196.445,60.074,13.287
2017-10-21T05:31:43,42.805,6.029,4330,1995,196.474,60.083,13.287
2017-10-21T05:34:43,42.805,6.029,4330,1995,196.541,60.103,13.286
2017-10-21T05:37:43,42.805,6.029,4330,1995,196.738,60.163,13.286
2017-10-21T05:40:43,42.805,6.029,4330,1995,196.677,60.144,13.286
2017-10-21T05:43:43,42.805,6.029,4330,1995,196.770,60.173,13.286
2017-10-21T05:46:43,42.805,6.029,4330,1995,196.670,60.142,13.286
2017-10-21T05:49:43,42.805,6.029,4330,1995,196.658,60.138,13.286
2017-10-21T05:52:43,42.805,6.029,4330,1995,196.603,60.121,13.286
2017-10-21T05:55:43,42.805,6.029,4330,1995,196.705,60.153,13.286
2017-10-21T05:58:43,42.805,6.029,4330,1995,196.690,60.148,13.286
2017-10-21T06:01:43,42.805,6.029,4330,1995,196.551,60.106,13.286
2017-10-21T06:04:43,42.805,6.029,4330,1995,196.635,60.131,13.286
2017-10-21T06:07:43,42.805,6.029,4330,1995,196.751,60.167,13.286
2017-10-21T06:10:43,42.805,6.029,4330,1995,196.893,60.210,13.286
2017-10-21T06:13:43,42.805,6.029,4330,1995,196.937,60.224,13.286
2017-10-21T06:16:43,42.805,6.029,4330,1995,196.997,60.242,13.286
2017-10-21T06:19:43,42.805,6.029,4330,1995,196.980,60.237,13.286
2017-10-21T06:22:43,42.805,6.029,4330,1995,197.065,60.263,13.286
2017-10-21T06:25:43,42.805,6.029,4330,1995,197.210,60.307,13.286
2017-10-21T06:28:43,42.805,6.029,4330,1995,197.184,60.299,13.286
2017-10-21T06:31:43,42.805,6.029,4330,1995,197.250,60.319,13.286
2017-10-21T06:34:43,42.805,6.029,4330,1995,197.075,60.266,13.286
2017-10-21T06:37:43,42.805,6.029,4330,1995,196.960,60.230,13.286
2017-10-21T06:40:43,42.805,6.029,4330,1995,196.965,60.233,13.287
2017-10-21T06:43:43,42.805,6.029,4330,1995,197.117,60.279,13.286
2017-10-21T06:46:43,42.805,6.029,4330,1995,197.199,60.305,13.287
2017-10-21T06:49:43,42.805,6.029,4330,1995,197.206,60.306,13.286
2017-10-21T06:52:43,42.805,6.029,4330,1995,197.304,60.336,13.286
2017-10-21T06:55:43,42.805,6.029,4330,1995,197.453,60.382,13.286
2017-10-21T06:58:43,42.805,6.029,4330,1995,197.561,60.415,13.287
2017-10-21T07:01:43,42.805,6.029,4330,1995,197.549,60.410,13.286
2017-10-21T07:04:43,42.805,6.029,4330,1995,197.548,60.410,13.286
2017-10-21T07:07:43,42.805,6.029,4330,1995,197.607,60.429,13.286
2017-10-21T07:10:43,42.805,6.029,4330,1995,197.642,60.439,13.286
2017-10-21T07:13:43,42.805,6.029,4330,1995,197.528,60.405,13.286
2017-10-21T07:16:43,42.805,6.029,4330,1995,197.516,60.401,13.286
2017-10-21T07:19:43,42.805,6.029,4330,1995,197.538,60.408,13.286
2017-10-21T07:22:43,42.805,6.029,4330,1995,197.641,60.439,13.286
2017-10-21T07:25:43,42.805,6.029,4330,1995,197.825,60.495,13.286
2017-10-21T07:28:43,42.805,6.029,4330,1995,197.955,60.535,13.286
2017-10-21T07:31:43,42.805,6.029,4330,1995,197.813,60.492,13.286
2017-10-21T07:34:43,42.805,6.029,4330,1995,197.860,60.505,13.286
2017-10-21T07:37:43,42.805,6.029,4330,1995,197.948,60.533,13.286
2017-10-21T07:40:43,42.805,6.029,4330,1995,197.979,60.542,13.286
2017-10-21T07:43:43,42.805,6.029,4330,1995,197.911,60.521,13.286
2017-10-21T07:46:43,42.805,6.029,4330,1995,198.058,60.566,13.286
2017-10-21T07:49:43,42.805,6.029,4330,1995,197.911,60.521,13.286
2017-10-21T07:52:43,42.805,6.029,4330,1995,197.759,60.475,13.286
2017-10-21T07:55:43,42.805,6.029,4330,1995,197.835,60.498,13.286
2017-10-21T07:58:43,42.805,6.029,4330,1995,197.716,60.462,13.286
2017-10-21T08:01:43,42.805,6.029,4330,1995,197.763,60.477,13.287
2017-10-21T08:04:43,42.805,6.029,4330,1995,197.777,60.480,13.286
2017-10-21T08:07:43,42.805,6.029,4330,1995,197.833,60.498,13.286
2017-10-21T08:10:43,42.805,6.029,4330,1995,197.693,60.455,13.286
2017-10-21T08:13:43,42.805,6.029,4330,1995,197.870,60.509,13.286
2017-10-21T08:16:43,42.805,6.029,4330,1995,197.863,60.507,13.286
2017-10-21T08:19:43,42.805,6.029,4330,1995,197.876,60.511,13.286
2017-10-21T08:22:43,42.805,6.029,4330,1995,197.940,60.530,13.286
2017-10-21T08:25:43,42.805,6.029,4330,1995,197.972,60.540,13.286
2017-10-21T08:28:43,42.805,6.029,4330,1995,198.082,60.573,13.286
2017-10-21T08:31:43,42.805,6.029,4330,1995,198.176,60.602,13.286
2017-10-21T08:34:43,42.805,6.029,4330,1995,198.352,60.656,13.286
2017-10-21T08:37:43,42.805,6.029,4330,1995,198.363,60.659,13.286
2017-10-21T08:40:43,42.805,6.029,4330,1995,198.372,60.662,13.286
2017-10-21T08:43:43,42.805,6.029,4330,1995,198.335,60.651,13.286
2017-10-21T08:46:43,42.805,6.029,4330,1995,198.335,60.651,13.286
2017-10-21T08:49:43,42.805,6.029,4330,1995,198.495,60.699,13.286
2017-10-21T08:52:43,42.805,6.029,4330,1995,198.630,60.741,13.286
2017-10-21T08:55:43,42.805,6.029,4330,1995,198.582,60.726,13.286
2017-10-21T08:58:43,42.805,6.029,4330,1995,198.580,60.725,13.286
2017-10-21T09:01:43,42.805,6.029,4330,1995,198.569,60.722,13.286
2017-10-21T09:04:43,42.805,6.029,4330,1995,198.606,60.734,13.286
2017-10-21T09:07:43,42.805,6.029,4330,1995,198.624,60.739,13.286
2017-10-21T09:10:43,42.805,6.029,4330,1995,198.760,60.780,13.285
2017-10-21T09:13:43,42.805,6.029,4330,1995,198.774,60.785,13.286
2017-10-21T09:16:43,42.805,6.029,4330,1995,198.787,60.788,13.286
2017-10-21T09:19:43,42.805,6.029,4330,1995,198.769,60.783,13.285
2017-10-21T09:22:43,42.805,6.029,4330,1995,198.882,60.817,13.285
2017-10-21T09:25:43,42.805,6.029,4330,1995,198.906,60.825,13.285
2017-10-21T09:28:43,42.805,6.029,4330,1995,198.880,60.817,13.285
2017-10-21T09:31:43,42.805,6.029,4330,1995,198.884,60.818,13.285
2017-10-21T09:34:43,42.805,6.029,4330,1995,198.929,60.832,13.285
2017-10-21T09:37:43,42.805,6.029,4330,1995,198.931,60.833,13.285
2017-10-21T09:40:43,42.805,6.029,4330,1995,198.860,60.811,13.285
2017-10-21T09:43:43,42.805,6.029,4330,1995,198.868,60.813,13.285
2017-10-21T09:46:43,42.805,6.029,4330,1995,198.869,60.813,13.285
2017-10-21T09:49:43,42.805,6.029,4330,1995,198.825,60.800,13.286
2017-10-21T09:52:43,42.805,6.029,4330,1995,198.824,60.800,13.286
2017-10-21T09:55:43,42.805,6.029,4330,1995,198.819,60.798,13.286
2017-10-21T09:58:43,42.805,6.029,4330,1995,198.782,60.788,13.286
2017-10-21T10:01:43,42.805,6.029,4330,1995,198.717,60.767,13.286
2017-10-21T10:04:43,42.805,6.029,4330,1995,198.679,60.756,13.286
2017-10-21T10:07:43,42.805,6.029,4330,1995,198.752,60.778,13.286
2017-10-21T10:10:43,42.805,6.029,4330,1995,198.722,60.769,13.286
2017-10-21T10:13:43,42.805,6.029,4330,1995,198.679,60.756,13.286
2017-10-21T10:16:43,42.805,6.029,4330,1995,198.604,60.732,13.286
2017-10-21T10:19:43,42.805,6.029,4330,1995,198.562,60.720,13.286
2017-10-21T10:22:43,42.805,6.029,4330,1995,198.430,60.680,13.286
2017-10-21T10:25:43,42.805,6.029,4330,1995,198.424,60.678,13.286
2017-10-21T10:28:43,42.805,6.029,4330,1995,198.353,60.656,13.286
2017-10-21T10:31:43,42.805,6.029,4330,1995,198.374,60.662,13.286
2017-10-21T10:34:43,42.805,6.029,4330,1995,198.339,60.652,13.286
2017-10-21T10:37:43,42.805,6.029,4330,1995,198.210,60.612,13.286
2017-10-21T10:40:43,42.805,6.029,4330,1995,198.071,60.570,13.286
2017-10-21T10:43:43,42.805,6.029,4330,1995,198.002,60.549,13.286
2017-10-21T10:46:43,42.805,6.029,4330,1995,197.870,60.508,13.286
2017-10-21T10:49:43,42.805,6.029,4330,1995,197.814,60.491,13.286
2017-10-21T10:52:43,42.805,6.029,4330,1995,197.634,60.437,13.286
2017-10-21T10:55:43,42.805,6.029,4330,1995,197.578,60.419,13.286
2017-10-21T10:58:43,42.805,6.029,4330,1995,197.702,60.458,13.286
2017-10-21T11:01:43,42.805,6.029,4330,1995,197.645,60.440,13.286
2017-10-21T11:04:43,42.805,6.029,4330,1995,197.587,60.422,13.286
2017-10-21T11:07:43,42.805,6.029,4330,1995,197.620,60.432,13.286
2017-10-21T11:10:43,42.805,6.029,4330,1995,197.452,60.381,13.286
2017-10-21T11:13:43,42.805,6.029,4330,1995,197.276,60.327,13.286
2017-10-21T11:16:43,42.805,6.029,4330,1995,197.089,60.270,13.286
2017-10-21T11:19:43,42.805,6.029,4330,1995,196.965,60.232,13.286
2017-10-21T11:22:43,42.805,6.029,4330,1995,196.834,60.192,13.286
2017-10-21T11:25:43,42.805,6.029,4330,1995,196.691,60.148,13.286
2017-10-21T11:28:43,42.805,6.029,4330,1995,196.621,60.127,13.286
2017-10-21T11:31:43,42.805,6.029,4330,1995,196.630,60.130,13.286
2017-10-21T11:34:43,42.805,6.029,4330,1995,196.891,60.209,13.286
2017-10-21T11:37:43,42.805,6.029,4330,1995,196.979,60.236,13.286
2017-10-21T11:40:43,42.805,6.029,4330,1995,196.856,60.199,13.286
2017-10-21T11:43:43,42.805,6.029,4330,1995,196.804,60.183,13.286
2017-10-21T11:46:43,42.805,6.029,4330,1995,196.800,60.181,13.286
2017-10-21T11:49:43,42.805,6.029,4330,1995,196.685,60.147,13.286
2017-10-21T11:52:43,42.805,6.029,4330,1995,196.941,60.225,13.286
2017-10-21T11:55:43,42.805,6.029,4330,1995,196.686,60.147,13.286
2017-10-21T11:58:43,42.805,6.029,4330,1995,196.542,60.103,13.286
2017-10-21T12:01:43,42.805,6.029,4330,1995,196.373,60.052,13.286
2017-10-21T12:04:43,42.805,6.029,4330,1995,196.387,60.056,13.287
2017-10-21T12:07:43,42.805,6.029,4330,1995,196.535,60.101,13.287
2017-10-21T12:10:43,42.805,6.029,4330,1995,196.627,60.130,13.287
2017-10-21T12:13:43,42.805,6.029,4330,1995,196.754,60.168,13.287
2017-10-21T12:16:43,42.805,6.029,4330,1995,196.798,60.182,13.287
2017-10-21T12:19:43,42.805,6.029,4330,1995,196.916,60.218,13.287
2017-10-21T12:22:43,42.805,6.029,4330,1995,196.846,60.197,13.287
2017-10-21T12:25:43,42.805,6.029,4330,1995,196.552,60.108,13.287
2017-10-21T12:28:43,42.805,6.029,4330,1995,196.208,60.003,13.288
2017-10-21T12:31:43,42.805,6.029,4330,1995,196.237,60.011,13.287
2017-10-21T12:34:43,42.805,6.029,4330,1995,196.118,59.975,13.288
2017-10-21T12:37:43,42.805,6.029,4330,1995,195.999,59.939,13.287
2017-10-21T12:40:43,42.805,6.029,4330,1995,196.066,59.959,13.288
2017-10-21T12:43:43,42.805,6.029,4330,1995,196.228,60.008,13.287
2017-10-21T12:46:43,42.805,6.029,4330,1995,196.430,60.070,13.287
2017-10-21T12:49:43,42.805,6.029,4330,1995,196.688,60.148,13.287
2017-10-21T12:52:43,42.805,6.029,4330,1995,196.884,60.208,13.287
2017-10-21T12:55:43,42.805,6.029,4330,1995,197.000,60.244,13.287
2017-10-21T12:58:43,42.805,6.029,4330,1995,196.928,60.223,13.288
2017-10-21T13:01:43,42.805,6.029,4330,1995,196.579,60.116,13.288
2017-10-21T13:04:43,42.805,6.029,4330,1995,196.164,59.990,13.288
2017-10-21T13:07:43,42.805,6.029,4330,1995,195.816,59.884,13.288
2017-10-21T13:10:43,42.805,6.029,4330,1995,195.300,59.725,13.288
2017-10-21T13:13:43,42.805,6.029,4330,1995,194.763,59.562,13.288
2017-10-21T13:16:43,42.805,6.029,4330,1995,194.776,59.566,13.288
2017-10-21T13:19:43,42.805,6.029,4330,1995,195.025,59.642,13.288
2017-10-21T13:22:43,42.805,6.029,4330,1995,195.234,59.706,13.289
2017-10-21T13:25:43,42.805,6.029,4330,1995,195.327,59.733,13.288
2017-10-21T13:28:43,42.805,6.029,4330,1995,195.301,59.725,13.288
2017-10-21T13:31:43,42.805,6.029,4330,1995,195.344,59.739,13.288
2017-10-21T13:34:43,42.805,6.029,4330,1995,195.433,59.767,13.288
2017-10-21T13:37:43,42.805,6.029,4330,1995,195.561,59.805,13.288
2017-10-21T13:40:43,42.805,6.029,4330,1995,195.645,59.832,13.289
2017-10-21T13:43:43,42.805,6.029,4330,1995,195.549,59.801,13.288
2017-10-21T13:46:43,42.805,6.029,4330,1995,195.271,59.717,13.288
2017-10-21T13:49:43,42.805,6.029,4330,1995,195.034,59.645,13.288
2017-10-21T13:52:43,42.805,6.029,4330,1995,194.893,59.603,13.290
2017-10-21T13:55:43,42.805,6.029,4330,1995,194.657,59.531,13.289
2017-10-21T13:58:43,42.805,6.029,4330,1995,194.574,59.504,13.288
2017-10-21T14:01:43,42.805,6.029,4330,1995,194.670,59.532,13.287
2017-10-21T14:04:43,42.805,6.029,4330,1995,194.769,59.562,13.287
2017-10-21T14:07:43,42.805,6.029,4330,1995,195.121,59.670,13.288
2017-10-21T14:10:43,42.805,6.029,4330,1995,195.258,59.715,13.289
2017-10-21T14:13:43,42.805,6.029,4330,1995,195.560,59.805,13.288
2017-10-21T14:16:43,42.805,6.029,4330,1995,195.500,59.786,13.288
2017-10-21T14:19:43,42.805,6.029,4330,1995,195.619,59.823,13.288
2017-10-21T14:22:43,42.805,6.029,4330,1995,195.419,59.764,13.289
2017-10-21T14:25:43,42.805,6.029,4330,1995,195.111,59.669,13.289
2017-10-21T14:28:43,42.805,6.029,4330,1995,194.760,59.564,13.291
2017-10-21T14:31:43,42.805,6.029,4330,1995,194.425,59.463,13.292
2017-10-21T14:34:43,42.805,6.029,4330,1995,194.049,59.345,13.290
2017-10-21T14:37:43,42.805,6.029,4330,1995,193.869,59.291,13.290
2017-10-21T14:40:43,42.805,6.029,4330,1995,193.728,59.247,13.290
2017-10-21T14:43:43,42.805,6.029,4330,1995,194.045,59.343,13.289
2017-10-21T14:46:43,42.805,6.029,4330,1995,194.333,59.433,13.290
2017-10-21T14:49:43,42.805,6.029,4330,1995,194.113,59.364,13.290
2017-10-21T14:52:43,42.805,6.029,4330,1995,193.643,59.220,13.289
2017-10-21T14:55:43,42.805,6.029,4330,1995,193.757,59.255,13.289
2017-10-21T14:58:43,42.805,6.029,4330,1995,193.572,59.199,13.289
2017-10-21T15:01:43,42.805,6.029,4330,1995,193.287,59.112,13.290
2017-10-21T15:04:43,42.805,6.029,4330,1995,193.174,59.076,13.288
2017-10-21T15:07:43,42.805,6.029,4330,1995,194.003,59.331,13.289
2017-10-21T15:10:43,42.805,6.029,4330,1995,194.081,59.354,13.289
2017-10-21T15:13:43,42.805,6.029,4330,1995,193.940,59.311,13.289
2017-10-21T15:16:43,42.805,6.029,4330,1995,193.862,59.286,13.289
2017-10-21T15:19:43,42.805,6.029,4330,1995,193.649,59.222,13.289
2017-10-21T15:22:43,42.805,6.029,4330,1995,194.181,59.384,13.288
2017-10-21T15:25:43,42.805,6.029,4330,1995,193.956,59.316,13.289
2017-10-21T15:28:43,42.805,6.029,4330,1995,193.801,59.268,13.288
2017-10-21T15:31:43,42.805,6.029,4330,1995,194.357,59.438,13.289
2017-10-21T15:34:43,42.805,6.029,4330,1995,194.582,59.506,13.289
2017-10-21T15:37:43,42.805,6.029,4330,1995,194.988,59.631,13.289
2017-10-21T15:40:43,42.805,6.029,4330,1995,195.050,59.650,13.289
2017-10-21T15:43:43,42.805,6.029,4330,1995,195.248,59.710,13.289
2017-10-21T15:46:43,42.805,6.029,4330,1995,194.749,59.558,13.289
2017-10-21T15:49:43,42.805,6.029,4330,1995,194.423,59.459,13.289
2017-10-21T15:52:43,42.805,6.029,4330,1995,194.570,59.506,13.291
2017-10-21T15:55:43,42.805,6.029,4330,1995,194.390,59.449,13.289
2017-10-21T15:58:43,42.805,6.029,4330,1995,195.138,59.676,13.288
2017-10-21T16:01:43,42.805,6.029,4330,1995,195.307,59.728,13.288
2017-10-21T16:04:43,42.805,6.029,4330,1995,194.972,59.626,13.289
2017-10-21T16:07:43,42.805,6.029,4330,1995,194.885,59.601,13.290
2017-10-21T16:10:43,42.805,6.029,4330,1995,194.732,59.555,13.290
2017-10-21T16:13:43,42.805,6.029,4330,1995,194.396,59.452,13.290
2017-10-21T16:16:43,42.805,6.029,4330,1995,194.118,59.365,13.289
2017-10-21T16:19:43,42.805,6.029,4330,1995,193.780,59.261,13.288
2017-10-21T16:22:43,42.805,6.029,4330,1995,193.754,59.254,13.289
2017-10-21T16:25:43,42.805,6.029,4330,1995,193.804,59.270,13.290
2017-10-21T16:28:43,42.805,6.029,4330,1995,194.077,59.352,13.288
2017-10-21T16:31:43,42.805,6.029,4330,1995,194.541,59.494,13.288
2017-10-21T16:34:43,42.805,6.029,4330,1995,194.607,59.515,13.289
2017-10-21T16:37:43,42.805,6.029,4330,1995,193.999,59.327,13.288
2017-10-21T16:40:43,42.805,6.029,4330,1995,194.125,59.365,13.287
2017-10-21T16:43:43,42.805,6.029,4330,1995,193.980,59.323,13.289
2017-10-21T16:46:43,42.805,6.029,4330,1995,194.085,59.354,13.288
2017-10-21T16:49:43,42.805,6.029,4330,1995,194.308,59.424,13.289
2017-10-21T16:52:43,42.805,6.029,4330,1995,194.376,59.443,13.288
2017-10-21T16:55:43,42.805,6.029,4330,1995,194.876,59.597,13.289
2017-10-21T16:58:43,42.805,6.029,4330,1995,195.022,59.641,13.289
2017-10-21T17:01:43,42.805,6.029,4330,1995,195.057,59.652,13.288
2017-10-21T17:04:43,42.805,6.029,4330,1995,195.435,59.769,13.290
2017-10-21T17:07:43,42.805,6.029,4330,1995,195.573,59.809,13.288
2017-10-21T17:10:43,42.805,6.029,4330,1995,195.588,59.815,13.289
2017-10-21T17:13:43,42.805,6.029,4330,1995,195.833,59.889,13.288
2017-10-21T17:16:43,42.805,6.029,4330,1995,196.290,60.027,13.287
2017-10-21T17:19:43,42.805,6.029,4330,1995,196.116,59.974,13.287
2017-10-21T17:22:43,42.805,6.029,4330,1995,196.449,60.076,13.288
2017-10-21T17:25:43,42.805,6.029,4330,1995,196.665,60.142,13.287
2017-10-21T17:28:43,42.805,6.029,4330,1995,196.791,60.180,13.287
2017-10-21T17:31:43,42.805,6.029,4330,1995,196.752,60.169,13.288
2017-10-21T17:34:43,42.805,6.029,4330,1995,197.103,60.277,13.288
2017-10-21T17:37:43,42.805,6.029,4330,1995,196.870,60.207,13.289
2017-10-21T17:40:43,42.805,6.029,4330,1995,196.835,60.194,13.287
2017-10-21T17:43:43,42.805,6.029,4330,1995,196.400,60.061,13.287
2017-10-21T17:46:43,42.805,6.029,4330,1995,197.017,60.249,13.287
2017-10-21T17:49:43,42.805,6.029,4330,1995,196.972,60.236,13.287
2017-10-21T17:52:43,42.805,6.029,4330,1995,196.919,60.219,13.287
2017-10-21T17:55:43,42.805,6.029,4330,1995,196.849,60.199,13.288
2017-10-21T17:58:43,42.805,6.029,4330,1995,196.460,60.081,13.289
2017-10-21T18:01:43,42.805,6.029,4330,1995,196.041,59.952,13.288
2017-10-21T18:04:43,42.805,6.029,4330,1995,195.448,59.771,13.289
2017-10-21T18:07:43,42.805,6.029,4330,1995,195.653,59.834,13.288